Powrót do katalogu

CZ-6A DEB

AktywnyPO
NORAD 60984·DEBRIS·🇨🇳 China

Wystrzelony Aug 6, 2024 z Taiyuan Satellite Launch Center

Loading…

Następne Przeloty (najbliższe 24 godziny)

TLE

ŚwieżeSource: Space-Track

Epoka: Sep 13, 2026, 17:17 UTC

1 60984U 24140MK  26256.72028317  .00000403  00000-0  11447-3 0  9996
2 60984  88.9287 255.1056 0061645 322.9357  36.7595 14.42541103108445

Śledź CZ-6A DEB w czasie rzeczywistym z AllMySat

Download on the App Store